GW1765 Weather Reports


Display with metric or nautical units.
time (UTC)temp
F
wind
direction
speed
MPH
gust
MPH
rain 1hr
in
rain 24hr
in
rain mn
in
humidity
%
barometer
mb
20260901141028 51 268 2.0 4.0 0.01 0.04 0.04 87 1019.5
20260901140045 50 191 2.0 5.0 0.02 0.04 0.04 86 1019.5
20260901135043 50 203 7.0 11.0 0.02 0.04 0.04 85 1019.6
20260901134018 50 220 8.0 14.0 0.04 0.04 0.04 84 1019.6
20260901133115 50 212 3.0 5.0 0.02 0.02 0.02 84 1019.5
20260901132111 50 218 4.0 7.0 0.02 0.02 0.02 83 1019.6
20260901131108 50 226 4.0 9.0 0.02 0.02 0.02 83 1019.6
20260901130105 50 180 4.0 7.0 0.01 0.01 0.01 82 1019.6
20260901125101 50 196 3.0 11.0 0.01 0.01 0.01 82 1019.7
20260901124057 50 168 1.0 4.0 0.00 0.00 0.00 82 1019.7
20260901123115 50 177 2.0 4.0 0.00 0.00 0.00 82 1019.6
20260901122052 50 211 2.0 4.0 0.00 0.00 0.00 81 1019.6
20260901121047 49 213 4.0 7.0 0.00 0.00 0.00 81 1019.6
20260901120043 49 270 3.0 6.0 0.00 0.00 0.00 81 1019.6
20260901115042 49 250 4.0 7.0 0.00 0.00 0.00 81 1019.5
20260901114057 49 221 5.0 8.0 0.00 0.01 0.00 81 1019.4
20260901113053 50 223 4.0 6.0 0.00 0.04 0.00 81 1019.3
20260901112031 50 215 5.0 8.0 0.00 0.04 0.00 81 1019.3
20260901111026 50 192 5.0 8.0 0.00 0.04 0.00 80 1019.3
20260901110103 49 189 5.0 8.0 0.00 0.04 0.00 80 1019.3
20260901105019 49 189 6.0 10.0 0.00 0.04 0.00 80 1019.4
20260901104018 49 180 7.0 10.0 0.00 0.04 0.00 80 1019.3
20260901103112 49 194 9.0 13.0 0.00 0.04 0.00 81 1019.4
20260901102151 50 199 11.0 16.0 0.00 0.04 0.00 81 1019.5
20260901101105 49 211 9.0 15.0 0.00 0.04 0.00 81 1019.5
20260901095058 50 253 10.0 14.0 0.00 0.04 0.00 82 1019.3
20260901094055 50 230 11.0 17.0 0.00 0.04 0.00 82 1019.2
20260901093053 49 228 8.0 12.0 0.00 0.05 0.00 81 1019.0
20260901092048 49 219 7.0 11.0 0.00 0.06 0.00 79 1018.8
20260901091044 49 200 6.0 10.0 0.00 0.08 0.00 78 1018.8
20260901090041 49 200 4.0 6.0 0.00 0.08 0.00 76 1018.8
20260901085037 49 183 3.0 4.0 0.00 0.08 0.00 75 1019.0
20260901084056 50 231 5.0 8.0 0.00 0.08 0.00 74 1018.9
20260901083052 50 213 8.0 13.0 0.00 0.08 0.00 73 1018.9
20260901082049 50 180 6.0 8.0 0.00 0.08 0.00 73 1018.7
20260901081045 50 148 5.0 8.0 0.00 0.08 0.00 73 1018.7
20260901080020 50 185 8.0 11.0 0.00 0.08 0.00 73 1018.7
20260901075018 50 167 9.0 13.0 0.00 0.08 0.00 73 1018.6
20260901074136 50 195 11.0 14.0 0.00 0.08 0.00 74 1018.6
20260901073109 50 200 13.0 16.0 0.00 0.08 0.00 74 1018.6
20260901072108 51 204 12.0 17.0 0.00 0.08 0.00 75 1018.4
20260901071104 51 214 13.0 18.0 0.00 0.08 0.00 75 1018.3
20260901070059 51 204 12.0 18.0 0.00 0.08 0.00 76 1018.1
20260901065058 51 216 12.0 19.0 0.00 0.08 0.00 76 1017.9
20260901064054 51 227 10.0 15.0 0.00 0.08 0.00 75 1017.8
20260901063111 51 258 11.0 19.0 0.00 0.08 0.00 74 1017.6
20260901062046 51 215 9.0 14.0 0.00 0.08 0.00 73 1017.6
20260901061043 51 205 10.0 15.0 0.00 0.08 0.00 73 1017.4
20260901060038 51 192 10.0 15.0 0.00 0.08 0.00 72 1017.3
20260901055036 52 207 11.0 16.0 0.00 0.08 0.00 71 1017.4
20260901054031 53 213 12.0 18.0 0.00 0.08 0.00 71 1017.5
20260901053028 53 189 13.0 16.0 0.00 0.08 0.00 71 1017.3
20260901052044 54 206 14.0 22.0 0.00 0.08 0.00 70 1017.1
20260901051021 54 219 14.0 23.0 0.00 0.08 0.00 71 1017.2
20260901050018 54 225 16.0 23.0 0.00 0.08 0.00 71 1017.0
20260901045114 53 224 16.0 25.0 0.00 0.08 0.00 70 1017.0
20260901044112 54 212 17.0 23.0 0.00 0.08 0.00 70 1016.9
20260901043110 55 221 14.0 21.0 0.00 0.08 0.00 67 1016.8
20260901042104 54 197 16.0 24.0 0.00 0.08 0.00 69 1016.7
20260901041100 55 218 14.0 23.0 0.00 0.09 0.00 67 1016.7
20260901040119 54 196 17.0 23.0 0.00 0.09 0.00 66 1016.7
20260901035113 55 197 16.0 22.0 0.00 0.09 0.00 63 1016.6
20260901034049 57 225 14.0 20.0 0.00 0.09 0.00 62 1016.7
20260901033046 57 215 16.0 20.0 0.00 0.09 0.00 63 1016.6
20260901032042 55 207 16.0 22.0 0.00 0.09 0.00 62 1016.5
20260901031101 56 213 17.0 23.0 0.00 0.11 0.00 59 1016.4
20260901030035 58 218 17.0 23.0 0.00 0.11 0.00 58 1016.2
20260901025032 58 217 18.0 27.0 0.00 0.11 0.00 60 1016.1
20260901024028 57 222 18.0 25.0 0.00 0.11 0.00 57 1016.0
20260901023046 58 231 20.0 27.0 0.00 0.11 0.00 56 1016.0
20260901022021 59 225 20.0 28.0 0.00 0.11 0.00 57 1015.9
20260901021038 57 229 20.0 27.0 0.00 0.11 0.00 55 1015.7
20260901020116 58 222 21.0 30.0 0.00 0.11 0.00 55 1015.8
20260901015111 57 230 21.0 29.0 0.00 0.11 0.00 57 1015.8
20260901014107 57 220 20.0 29.0 0.00 0.11 0.00 60 1016.1
20260901013126 58 208 19.0 27.0 0.00 0.11 0.00 61 1016.2
20260901012101 58 220 21.0 27.0 0.00 0.11 0.00 61 1016.4
20260901011117 58 216 21.0 29.0 0.00 0.11 0.00 61 1016.5
20260901010054 59 213 20.0 27.0 0.00 0.11 0.00 61 1016.5
20260901005049 59 233 16.0 26.0 0.00 0.11 0.00 63 1016.6
20260901004047 57 237 17.0 23.0 0.00 0.11 0.00 61 1016.7
20260901003043 58 214 21.0 30.0 0.00 0.11 0.00 62 1016.9
20260901002039 57 213 20.0 29.0 0.00 0.11 0.00 62 1016.8
20260901001036 56 186 19.0 30.0 0.00 0.11 0.00 62 1016.8
20260901000032 56 222 23.0 30.0 0.00 0.11 0.00 60 1016.8
20260831235049 58 211 22.0 30.0 0.00 0.11 0.00 60 1016.6
20260831234027 58 217 21.0 28.0 0.00 0.11 0.00 58 1016.7
20260831233022 58 221 23.0 31.0 0.00 0.11 0.00 59 1016.7
20260831232019 58 217 22.0 36.0 0.00 0.12 0.00 61 1016.6
20260831231115 57 219 23.0 32.0 0.00 0.12 0.00 61 1016.6
20260831230113 56 233 21.0 27.0 0.00 0.12 0.00 64 1016.6
20260831225110 54 203 23.0 30.0 0.00 0.12 0.00 67 1016.7
20260831224105 56 208 21.0 33.0 0.00 0.12 0.00 61 1016.7
20260831223101 57 217 22.0 29.0 0.00 0.12 0.00 62 1016.6
20260831222058 56 219 22.0 31.0 0.00 0.12 0.00 61 1016.5
20260831221054 57 212 19.0 27.0 0.00 0.14 0.00 61 1016.4
20260831220053 56 230 20.0 27.0 0.00 0.14 0.00 64 1016.3
20260831215047 55 216 20.0 28.0 0.00 0.14 0.00 70 1016.2
20260831214044 54 193 18.0 24.0 0.00 0.14 0.00 76 1015.9
20260831213040 51 218 17.0 23.0 0.00 0.14 0.00 74 1015.8
20260831212039 51 216 17.0 24.0 0.00 0.14 0.00 74 1015.8
20260831211033 51 213 20.0 28.0 0.00 0.14 0.00 75 1015.7
20260831210035 52 216 18.0 25.0 0.00 0.14 0.00 79 1015.7
20260831205026 51 222 17.0 24.0 0.00 0.14 0.00 81 1015.5
20260831204023 49 230 17.0 24.0 0.00 0.14 0.00 80 1015.5
20260831203021 49 198 21.0 34.0 0.00 0.14 0.00 80 1015.5
20260831202036 49 224 17.0 34.0 0.00 0.14 0.00 80 1015.3
20260831201112 48 197 16.0 24.0 0.00 0.14 0.00 80 1015.1
20260831200110 48 222 14.0 18.0 0.00 0.14 0.00 80 1014.8
20260831195105 48 226 13.0 21.0 0.00 0.18 0.00 79 1014.4
20260831194102 48 230 17.0 26.0 0.00 0.18 0.00 78 1014.2
20260831193100 48 210 16.0 28.0 0.00 0.18 0.00 78 1014.1
20260831192055 47 221 12.0 19.0 0.00 0.19 0.00 78 1014.0
20260831191054 47 199 14.0 21.0 0.00 0.19 0.00 79 1013.8
20260831190048 47 231 15.0 21.0 0.00 0.19 0.00 80 1013.8
20260831185045 47 221 16.0 25.0 0.00 0.19 0.00 81 1013.4
20260831184042 47 211 13.0 22.0 0.00 0.19 0.00 80 1013.2
20260831183037 47 223 11.0 16.0 0.00 0.19 0.00 80 1013.3
20260831182033 47 232 14.0 20.0 0.00 0.19 0.00 80 1013.3
20260831181032 48 209 18.0 30.0 0.00 0.20 0.00 80 1013.2
20260831180027 48 216 16.0 21.0 0.00 0.20 0.00 79 1013.2
20260831175043 48 202 22.0 27.0 0.00 0.20 0.00 78 1013.1
20260831174020 47 212 17.0 27.0 0.00 0.20 0.00 78 1012.9
20260831173019 47 216 16.0 22.0 0.00 0.20 0.00 77 1012.9
20260831172136 47 197 15.0 21.0 0.00 0.20 0.00 77 1012.8
20260831171130 47 195 19.0 27.0 0.00 0.20 0.00 79 1012.7
20260831170106 48 233 19.0 24.0 0.00 0.20 0.00 79 1012.7
20260831165102 48 228 16.0 28.0 0.00 0.20 0.00 79 1012.6
20260831164119 48 230 13.0 20.0 0.00 0.20 0.00 77 1012.4
20260831163057 47 180 16.0 21.0 0.00 0.20 0.00 76 1012.3
20260831162052 48 192 19.0 25.0 0.00 0.20 0.00 75 1012.2
20260831161048 48 200 18.0 27.0 0.00 0.20 0.00 75 1012.0
20260831160047 47 199 19.0 27.0 0.00 0.20 0.00 76 1011.8
20260831155041 47 194 16.0 23.0 0.00 0.20 0.00 76 1011.7
20260831154040 47 213 18.0 24.0 0.00 0.20 0.00 76 1011.5
20260831153034 48 225 19.0 28.0 0.00 0.20 0.00 76 1011.4
20260831152033 47 216 16.0 26.0 0.00 0.20 0.00 75 1011.4
20260831151027 48 221 15.0 21.0 0.00 0.20 0.00 75 1011.6
20260831150024 49 221 18.0 28.0 0.00 0.20 0.00 75 1011.6
20260831145027 49 213 15.0 24.0 0.00 0.21 0.00 74 1011.5
20260831144058 48 221 14.0 20.0 0.00 0.21 0.00 73 1011.5
20260831143113 49 227 16.0 23.0 0.00 0.21 0.00 76 1011.7
20260831142110 49 221 20.0 29.0 0.00 0.21 0.00 75 1011.6